Terminal Aerodrome Forecast
Issued by NWS Wilmington, OH

Current Version | Previous Version | Text Only | Print | Product List | Glossary Off
Versions: 1 2 3 4 5 6 7 8 9 10 11 12 13 14 15 16 17 18 19 20

102
FTUS41 KILN 151740
TAFILN
TAF
KILN 151740Z 1518/1618 21012KT P6SM -SHRA OVC080
     FM152100 21013KT 5SM -SHRA OVC025
     FM152300 22013KT 5SM BR VCSH OVC008
     FM160300 26013KT P6SM OVC005
     FM160800 27013KT P6SM BKN015=

USA.gov is the U.S. government's official web portal to all federal, state and local government web resources and services.